User: anonymous   Login
Location: Leeds
(37.2390°N, 113.3580°W)
Time: 15:14:48
(UTC-06:00)
Language:

SL-08 RB Rocket - Orbit

View from above orbital plane
View from above orbital plane
View from above satellite
View from above satellite

Ground track
Ground track

The orbit data is extracted from the following two-line orbital elements,

1 26387U 00033D   16204.79374609 +.00000123 +00000-0 +29759-4 0  9992
2 26387 098.0152 270.6761 0025359 305.2712 165.7939 14.68170202117231
Epoch (UTC): 22 July 2016 19:02:59
Eccentricity: 0.0025359
inclination: 98.0152°
perigee height: 649 km
apogee height: 685 km
right ascension of ascending node: 270.6761°
argument of perigee: 305.2712°
revolutions per day: 14.68170202
mean anomaly at epoch: 165.7939°
orbit number at epoch: 11723

The dashed part of the orbit path shows where the satellite is in the earth's shadow,  

DLR